Location: Newark
(50.0821°N, 8.2414°E)
Time: 21:15:24
(UTC+00:00)

ISS - Pass Details

Date: 29 July 2019
Orbit: 410 x 420 km, 51.6° (Epoch: 20 August)

Event Time Altitude Azimuth Distance (km) Brightness Sun altitude
Rises 21:26:57 0° 287° (WNW) 2,373 0.8 -15.8°
Reaches altitude 10° 21:29:09 10° 278° (W) 1,504 -0.4 -16.0°
Maximum altitude 21:32:16 35° 211° (SSW) 695 -2.9 -16.2°
Enters shadow 21:32:41 34° 193° (SSW) 717 -3.0 -16.3°
